Theta_e
281 285 282 281 281 279 273 273 270 268 269 273 280 283 285 285 286 286 288 286 285 283 282 283 282 283 284 284 285 285 284 283 282 283 282 282 283 283 283 282 282 282 281 281
282 284 283 281 282 281 280 277 274 274 273 279 282 285 285 286 287 288 288 286 285 284 284 283 283 283 284 284 284 285 283 282 283 282 282 282 282 282 282 281 280 281 280 280
279 281 281 276 279 281 280 280 279 275 278 282 282 285 286 287 288 288 287 285 285 284 283 283 282 283 282 283 284 284 283 283 283 282 282 282 282 282 281 280 280 280 280 280
277 278 266 280 284 285 283 283 282 281 282 284 285 286 288 288 287 288 286 285 284 283 283 283 282 283 283 283 283 283 282 282 282 282 281 281 281 280 280 280 280 280 280 280
275 276 278 281 283 283 281 281 286 284 285 285 287 285 285 288 289 287 286 285 284 283 283 282 282 283 283 282 282 283 281 281 281 281 281 280 280 279 280 279 279 279 280 279
276 274 271 279 284 288 286 277 285 287 286 285 285 281 283 287 287 287 286 285 283 283 283 282 283 283 282 281 281 281 281 281 281 281 280 279 279 279 279 279 280 279 279 279
268 268 277 284 285 287 278 279 283 287 286 286 285 286 287 287 287 287 285 283 284 283 282 282 283 283 281 281 281 282 282 281 281 280 280 279 279 279 279 281 279 278 278 278
275 270 272 286 285 282 285 284 286 286 287 287 286 288 288 288 286 285 283 283 283 282 282 282 282 282 281 280 282 282 281 280 280 280 280 280 278 278 278 280 277 277 277 278
280 279 285 286 285 286 287 286 286 286 287 289 287 287 287 287 286 285 283 283 283 282 282 282 282 283 281 281 282 281 280 280 280 281 280 280 277 277 276 279 278 277 277 277
282 284 286 287 288 289 288 287 287 288 288 289 287 287 287 287 286 284 283 282 283 282 282 281 282 283 282 282 282 281 280 280 280 280 280 279 278 278 276 278 277 277 277 277
282 286 287 289 289 291 290 289 289 289 289 289 288 288 288 287 286 285 283 283 284 283 282 282 282 282 282 282 281 280 280 280 280 280 279 279 279 278 278 278 278 276 276 277
282 287 287 288 292 291 291 289 290 290 289 289 290 289 288 287 287 285 283 283 283 283 282 282 282 282 282 281 281 280 280 280 279 279 278 278 277 276 280 280 280 280 280 278
288 290 290 290 292 292 292 291 290 291 291 289 289 290 289 287 285 286 284 284 284 283 283 282 282 281 281 281 281 280 279 280 279 279 278 277 276 276 270 275 278 279 279 278
289 291 288 291 291 292 292 291 294 291 291 292 291 290 289 286 285 285 285 285 285 283 282 282 282 281 282 282 281 280 280 277 278 277 274 274 271 272 271 268 265 268 275 277
290 292 291 292 291 292 292 290 289 289 289 289 289 289 288 285 285 285 284 285 284 283 282 281 281 281 282 282 281 280 279 275 276 275 274 274 273 271 270 269 268 268 271 272
291 291 291 291 292 291 291 290 289 289 289 288 289 288 288 288 284 284 284 284 283 282 282 281 281 282 282 282 280 279 279 277 275 276 275 274 273 271 270 269 269 269 269 269
287 286 288 288 290 289 290 291 292 291 289 289 289 289 287 283 283 283 284 284 283 282 282 282 280 282 280 281 280 277 277 277 276 277 275 274 273 272 271 269 268 269 268 269
290 291 292 292 291 289 288 290 290 289 289 290 288 286 283 283 285 284 283 283 282 280 282 282 282 282 281 282 281 279 278 278 278 277 276 274 274 274 272 270 270 269 268 269
291 290 290 291 292 291 290 289 289 290 287 286 284 285 285 285 283 283 283 282 279 281 283 283 282 282 282 281 281 281 279 278 278 277 276 272 273 272 271 270 269 268 268 267
291 291 290 290 290 290 289 289 288 288 286 285 282 281 281 278 281 282 283 283 284 284 284 284 283 283 283 282 281 280 279 278 277 276 274 273 272 269 270 268 269 266 263 265
290 289 289 289 289 288 287 286 286 286 283 282 285 283 283 280 282 282 282 282 284 283 284 282 283 283 283 281 280 280 279 276 276 275 272 269 267 270 267 266 265 264 262 263
289 289 287 286 286 285 285 286 287 283 283 280 278 279 280 281 280 282 282 285 284 281 282 283 283 282 282 279 281 280 279 278 276 274 271 268 267 266 265 263 263 263 262 260
288 288 287 284 285 286 285 285 283 285 283 282 281 281 283 284 284 283 282 284 283 282 283 283 281 279 279 281 281 279 279 277 276 275 272 269 268 266 266 265 264 264 261 262
288 288 288 287 286 286 285 285 284 284 282 283 283 283 284 282 279 282 283 282 280 281 283 282 280 280 279 281 280 279 278 277 276 275 273 268 268 266 265 264 264 263 262 261
288 287 287 287 287 286 286 284 284 283 284 283 283 283 284 284 284 284 281 281 280 280 282 279 279 279 280 280 280 279 279 277 276 274 273 270 269 267 266 265 265 264 262 262
287 287 287 288 287 286 285 286 284 283 283 281 280 281 281 282 282 283 282 279 281 279 280 278 279 279 280 280 279 278 278 277 275 274 273 272 271 269 267 267 265 265 263 263
286 284 286 286 286 285 285 284 284 283 282 283 282 281 281 280 279 280 280 279 278 278 278 277 278 277 279 279 278 278 277 277 275 275 273 273 272 270 268 269 267 267 265 263
Wind_Speed
2 2 4 5 8 11 8 6 8 7 10 9 10 12 11 8 5 6 7 7 7 6 5 2 1 2 1 3 4 4 4 5 5 6 6 7 7 8 9 10 9 10 10 10
1 4 3 3 7 13 10 4 8 3 12 15 5 4 5 9 7 7 6 7 8 6 6 4 3 1 1 2 4 4 5 5 5 6 6 7 7 8 9 9 10 10 11 10
2 1 1 8 13 15 7 6 9 10 12 4 4 8 8 9 8 8 7 9 8 8 6 5 3 3 1 2 3 5 5 5 5 6 7 7 7 8 9 9 9 10 11 11
3 3 2 9 2 11 14 7 14 6 7 8 4 4 5 7 8 8 9 9 7 6 5 5 3 3 2 4 5 5 5 5 5 5 5 7 7 8 8 7 9 9 10 11
5 3 8 6 6 10 10 11 22 23 10 6 4 3 4 6 6 9 9 8 7 6 5 5 5 4 5 5 5 5 5 4 5 5 5 5 7 7 6 7 9 10 10 11
2 2 7 7 2 6 5 8 7 21 12 10 8 3 7 6 8 8 8 7 8 7 5 6 5 5 5 4 5 5 4 4 4 5 5 6 5 7 5 5 7 8 9 11
2 2 11 8 3 6 5 10 4 11 9 12 10 6 2 11 7 7 7 9 7 7 7 7 6 6 6 4 5 5 4 4 4 5 5 6 5 5 5 8 7 9 8 8
3 2 12 7 6 9 8 2 3 6 8 9 5 7 9 9 10 10 9 8 8 7 6 6 6 6 5 5 5 5 5 4 4 5 4 5 6 6 6 9 6 9 9 10
11 11 6 7 4 5 3 4 4 7 6 9 9 7 11 9 11 10 9 7 6 7 7 6 6 6 6 5 6 5 4 4 4 4 4 4 5 5 4 8 8 7 7 9
2 7 12 9 5 5 5 3 5 5 7 10 10 10 8 9 8 8 7 7 7 7 7 6 6 6 5 6 6 5 4 3 2 3 4 4 3 3 4 7 7 6 7 7
6 9 5 11 11 9 8 4 5 6 7 11 11 11 11 10 9 8 7 6 8 8 6 7 7 6 5 6 6 5 4 3 2 2 3 3 3 3 4 4 5 4 5 6
10 10 5 6 9 11 11 9 9 9 7 5 10 14 9 9 8 9 8 7 6 7 7 7 7 6 5 6 6 5 4 2 2 2 2 2 1 3 8 9 12 14 15 9
8 7 6 2 3 9 13 11 9 11 10 13 7 9 10 8 7 8 8 9 9 10 8 8 7 6 6 6 6 5 5 3 2 2 2 2 2 3 3 5 9 13 15 16
4 6 2 5 6 10 10 10 13 9 9 12 14 9 7 7 6 10 12 11 8 8 8 8 7 7 6 6 6 5 5 4 3 2 2 3 2 2 2 2 3 4 8 13
12 10 6 6 5 6 5 8 9 8 8 8 8 12 12 11 11 12 8 9 8 8 7 7 7 6 6 6 6 6 4 3 3 2 2 4 3 3 2 3 3 2 3 5
9 10 6 7 9 9 8 9 9 10 9 8 11 11 15 13 7 9 10 11 12 11 10 9 8 6 7 6 6 4 4 6 4 3 2 3 3 3 3 2 3 3 4 4
7 6 8 6 9 8 10 10 13 13 11 12 15 12 9 8 8 9 10 9 7 9 10 10 8 7 7 6 6 4 3 3 5 3 3 3 3 2 2 2 2 2 3 4
8 6 10 10 11 9 7 9 8 9 11 14 10 11 11 13 15 13 12 9 8 5 7 7 8 8 8 7 6 4 4 4 4 4 3 3 3 3 2 2 2 2 2 3
10 10 9 10 10 10 9 9 9 9 8 10 11 13 15 12 9 11 12 10 8 8 9 8 11 11 10 9 7 5 4 5 4 3 3 4 3 3 3 2 2 2 1 2
13 9 9 8 7 9 9 7 9 9 8 10 8 8 8 8 12 13 13 14 13 6 10 11 11 10 10 9 9 5 5 6 5 4 3 3 3 3 3 3 3 2 1 0
10 9 9 10 9 8 7 8 11 9 8 9 13 13 12 9 11 12 10 8 9 7 9 12 10 7 7 8 8 6 5 5 5 5 5 4 4 4 3 3 2 3 3 2
7 8 9 9 8 7 7 8 8 8 10 8 7 9 11 11 9 7 4 7 6 11 7 8 8 9 8 10 7 6 6 7 6 5 4 4 4 4 4 4 4 4 3 3
7 7 7 7 9 8 7 7 7 10 11 10 11 12 13 11 11 11 6 8 6 10 8 7 9 12 11 8 7 8 7 7 7 6 6 6 5 5 5 5 5 4 4 4
7 7 6 7 8 7 8 6 6 6 6 6 7 9 13 9 1 1 3 11 10 12 9 8 10 13 13 7 7 8 7 7 7 6 6 7 5 5 5 5 5 5 4 4
7 7 7 8 8 5 7 7 7 6 7 6 6 6 6 4 5 9 5 6 10 10 8 8 11 13 9 8 8 8 8 7 7 7 7 7 7 6 6 6 5 5 5 5
6 5 5 6 5 6 6 7 5 4 6 5 2 4 3 3 4 7 7 7 8 8 6 6 7 8 8 8 8 8 7 7 7 7 7 7 7 6 6 6 5 5 5 5
6 5 5 4 3 5 5 7 7 6 5 6 5 5 5 4 4 5 7 6 6 6 5 5 6 8 7 7 8 7 7 6 7 7 6 6 6 6 7 7 6 6 5 5
Wind_Direction
184 153 143 165 174 179 190 177 164 244 208 250 228 213 220 224 226 221 229 177 186 195 204 179 257 327 14 356 15 30 75 36 11 350 350 346 352 355 356 359 358 357 360 4
129 161 194 223 193 194 212 218 280 229 275 218 231 166 190 214 206 220 202 175 187 192 187 185 202 184 279 4 29 53 70 31 7 3 357 356 355 356 357 359 358 359 5 6
222 239 176 309 206 185 186 198 171 209 227 186 196 210 221 212 202 203 187 175 184 192 179 181 180 173 153 44 47 67 64 32 10 7 5 3 357 1 358 354 357 359 3 6
142 54 333 242 175 185 198 198 213 242 214 194 178 182 202 194 189 186 172 172 184 176 165 165 162 161 122 62 51 83 62 38 17 11 11 3 0 2 2 353 360 359 0 5
135 208 284 260 185 156 169 259 207 221 207 182 127 83 281 201 183 177 171 171 181 161 156 152 159 156 105 66 60 91 62 36 11 8 9 359 4 355 359 358 359 2 1 3
136 189 229 240 200 150 144 292 209 203 195 152 134 175 241 162 151 151 154 157 157 155 134 150 163 137 108 74 70 102 84 44 23 10 7 357 357 359 353 348 1 359 0 0
111 237 287 240 158 143 125 237 152 175 154 152 180 192 182 131 134 146 154 157 142 145 156 176 152 134 108 91 85 121 93 62 41 20 14 5 2 2 357 17 6 356 359 355
104 103 270 169 94 168 222 298 153 136 153 173 150 137 137 143 146 152 155 148 153 148 162 165 150 127 125 111 129 116 93 72 53 35 23 15 14 359 4 17 6 4 6 12
183 210 235 229 196 221 180 177 175 139 157 156 145 148 155 161 161 169 165 159 153 153 154 159 151 143 139 152 132 126 107 94 62 41 27 15 20 7 12 19 20 8 9 12
98 246 229 241 244 244 212 227 154 143 146 158 154 148 155 159 165 165 162 164 148 150 158 154 154 145 141 139 131 129 121 114 69 42 26 16 18 14 21 20 17 9 10 5
262 274 301 243 223 205 209 200 129 136 156 161 140 160 165 169 175 173 162 149 152 166 163 157 148 140 144 138 136 133 133 127 73 49 20 11 29 38 18 355 27 8 6 8
216 214 184 240 216 175 169 181 174 150 133 158 153 165 164 180 176 165 160 147 154 162 149 157 148 152 149 141 147 145 135 121 62 39 21 36 45 13 24 42 35 33 30 26
216 187 199 276 185 176 173 175 173 172 166 167 164 170 171 168 174 152 143 157 171 172 156 156 153 158 157 151 142 140 134 126 88 77 47 38 52 63 20 345 18 30 29 27
213 125 156 197 218 175 176 173 172 175 177 175 172 161 158 152 138 164 173 173 156 144 151 159 159 169 167 154 143 138 125 112 120 110 108 80 73 60 67 38 341 341 358 21
202 211 203 195 152 158 140 133 149 172 167 155 165 168 162 163 177 186 149 147 140 139 150 155 163 177 162 156 151 151 134 133 126 108 99 109 99 76 56 49 14 348 336 353
201 204 196 180 194 169 152 165 171 188 174 166 167 171 186 188 154 142 144 146 149 177 174 172 178 172 160 159 159 141 130 128 133 128 110 104 97 98 73 37 29 11 14 356
134 196 196 205 197 178 185 181 189 190 177 172 187 180 153 132 122 140 159 164 154 160 169 171 180 157 155 166 163 160 146 144 141 124 127 133 130 123 127 106 54 29 357 358
214 205 194 199 188 184 197 194 183 162 179 191 164 155 145 157 176 172 162 143 127 123 166 169 157 159 167 173 166 159 154 155 147 153 143 135 140 136 135 124 93 71 5 7
201 207 196 189 187 188 188 182 179 181 146 150 146 176 179 180 159 151 141 146 148 162 202 173 165 164 174 175 160 157 159 154 153 148 147 145 142 142 145 151 137 110 72 20
197 198 183 198 178 177 188 185 159 163 161 152 132 130 152 149 143 148 159 174 184 180 154 169 167 176 174 170 162 163 163 161 161 158 157 154 153 160 158 168 166 149 153 267
186 174 178 181 196 193 188 162 152 162 163 154 163 175 176 150 149 146 144 172 198 171 161 160 171 176 174 165 165 164 164 161 161 168 169 171 158 173 170 174 182 178 192 209
169 166 177 172 173 183 171 162 151 126 148 147 119 121 133 147 146 161 181 182 156 158 154 170 178 174 171 161 168 167 171 174 172 162 164 168 174 177 187 185 195 203 198 203
157 156 153 161 173 171 137 153 150 153 158 162 155 157 165 169 165 160 187 201 153 165 166 177 176 170 164 170 171 175 177 175 176 179 177 178 181 181 180 188 198 195 193 202
154 156 158 128 119 118 146 166 149 143 143 153 156 156 148 144 66 239 97 142 148 163 182 175 175 172 167 174 175 179 181 180 180 179 178 179 182 178 183 182 190 197 201 201
141 139 133 138 151 172 118 125 113 122 125 127 140 156 152 153 162 179 157 159 158 165 184 172 170 171 180 180 180 182 186 183 182 177 180 182 185 190 192 187 191 191 196 200
139 153 151 155 161 144 137 143 144 143 131 132 133 156 141 149 126 144 157 158 164 172 170 163 174 178 184 183 183 183 181 178 176 185 183 188 188 188 193 194 192 195 197 200
98 107 113 89 96 131 143 146 139 164 163 160 149 166 163 157 142 147 160 162 167 173 165 164 171 180 182 183 184 182 179 181 180 180 184 187 188 190 192 196 194 197 194 197